FENGYUN 1C DEB, 41011

Orbit data source: Space-Track

FENGYUN 1C DEB, 41011 is space debris in SSO originally from a launch on Mon, 10 May 1999 UTC launched from the Taiyaun Space Center, China (TSC). Fengyun 1C debris stems from the Chinese weather satellite Fengyun-1C, which was intentionally destroyed by a Chinese anti-satellite missile in 2007. This event dramatically increased the amount of space debris, with thousands of trackable fragments posing hazards to satellites and human spaceflight. The Fengyun 1C debris cloud has become a focal point in discussions about space sustainability and the need for international regulations to prevent the creation of new debris.

Loading next visibility...
Identifier
41011, 1999-025EXR
Orbit
SSO
Country
Flag of CNCN / PRC
Related business
Manufacturer
Unknown
Mission
Spacecraft
Bus & Motor
Unknown
Mass
Unknown
Launch date (UTC)
1999-05-10 (27 years ago)
Launch vehicle
Unknown
Launch site
Taiyaun Space Center, China (TSC)
Object type
Payload
Rocket body
Debris
Shape & HBR
Unknown shape, 0.1 m
Radar Cross Section
Small (<0.1 m²)

Expand to show TLE details & history
Last TLE update: 1 day ago

TLE from 1 day ago
0 FENGYUN 1C DEB
1 41011U 99025EXR 25347.38433825  .00005283  00000-0  89143-3 0  9995
2 41011  99.1692  32.4443 0310034 356.2612   3.6261 14.42910702571664
Epoch: 2025-12-13T09:13Z
TLE epoch observation values (Epoch: 2025-12-13T09:13:26.824Z)
Latitude
-0.00011°
Longitude
171.77017°
Altitude
531.296 km
Speed
7.714 km/s
True Right ascension
02h 09m 46s
True Declination
0° 00' 00"
Sunlit
Object was in full shadow at epoch
Visualization orbit readout
Latitude
Unknown
Longitude
Unknown
Altitude
Unknown
Speed
Unknown
Apparent Right ascension
Unknown
Apparent Declination
Unknown
Sunlit
N/A
Visualization observer readout
Local Sidereal Time
17:56:16
Azimuth
Unknown
Elevation
Unknown
Doppler factor
Unknown
Orbital elements
Apogee altitude
966.918 km
Perigee altitude
525.171 km
Semi-major axis
7,124.181 km
Eccentricity
0.031
Inclination
99.1692°
RAAN
32.4443°
Arg. of periapsis
356.2612°
True anomaly
3.85982°
Mean anomaly
3.6261°
Eccentric anomaly
3.74203°
Mean motion
3.60945 °/min
Orbital period
99.74 mins
BSTAR
0.00089143
Loading maneuver chart data...
Computing Atmospheric mass density...

Documentation

Showing up to 5 results
|